Location: Chuathbaluk
(61.5726°N, 159.2454°W)
Time: 13:25:48
(UTC+00:00)

First-Move - Visible Passes

Search period start: 16 January 2021 00:00
Search period end: 26 January 2021 00:00
Orbit: 577 x 666 km, 97.6° (Epoch: 16 January)

Date Brightness Start Highest point End Pass type
(mag) Time Alt. Az. Time Alt. Az. Time Alt. Az.
16 Jan ? 03:44:36 10° SSW 03:48:28 29° W 03:52:26 10° NNW visible
16 Jan ? 15:20:30 10° NNE 15:24:42 34° E 15:28:53 10° SSE visible
16 Jan ? 16:56:37 10° NNE 17:01:08 56° WNW 17:05:38 10° SW visible
16 Jan ? 18:33:32 10° N 18:36:32 17° NW 18:39:31 10° W visible
17 Jan ? 04:03:00 10° SW 04:06:29 22° W 04:10:03 10° NW visible
17 Jan ? 14:04:32 10° ENE 14:05:16 10° ENE 14:06:00 10° E visible
17 Jan ? 15:38:13 10° NNE 15:42:39 44° E 15:47:02 10° S visible
17 Jan ? 17:14:30 10° N 17:18:53 43° WNW 17:23:13 10° SW visible
18 Jan ? 04:21:36 10° SW 04:24:33 17° W 04:27:32 10° NW visible
18 Jan ? 14:21:01 10° NE 14:23:24 14° E 14:25:47 10° ESE visible
18 Jan ? 15:55:59 10° NNE 16:00:34 59° ESE 16:05:06 10° S visible
18 Jan ? 17:32:25 10° N 17:36:35 34° WNW 17:40:43 10° WSW visible
19 Jan ? 03:01:02 10° S 03:05:25 56° WSW 03:09:57 10° NNW visible
19 Jan ? 04:40:34 10° WSW 04:42:39 13° W 04:44:46 10° NW visible
19 Jan ? 14:38:18 10° NE 14:41:30 18° E 14:44:39 10° SE visible
19 Jan ? 16:13:47 10° NNE 16:18:26 78° ESE 16:23:01 10° SSW visible
19 Jan ? 17:50:22 10° N 17:54:15 27° NW 17:58:07 10° WSW visible
20 Jan ? 03:19:05 10° S 03:23:20 42° W 03:27:43 10° NNW visible
20 Jan ? 14:55:49 10° NE 14:59:32 24° E 15:03:14 10° SE visible
20 Jan ? 16:31:38 10° NNE 16:36:16 80° WNW 16:40:50 10° SSW visible
20 Jan ? 18:08:20 10° N 18:11:53 22° NW 18:15:25 10° W visible
21 Jan ? 03:37:15 10° SSW 03:41:18 32° W 03:45:25 10° NNW visible
21 Jan ? 15:13:26 10° NNE 15:17:32 31° E 15:21:35 10° SSE visible
21 Jan ? 16:49:29 10° NNE 16:54:03 62° WNW 16:58:33 10° SW visible
21 Jan ? 18:26:20 10° N 18:29:30 19° NW 18:32:38 10° W visible
22 Jan ? 03:55:35 10° SW 03:59:17 25° W 04:03:05 10° NNW visible
22 Jan ? 15:31:08 10° NNE 15:35:30 40° E 15:39:48 10° SSE visible
22 Jan ? 17:07:22 10° N 17:11:48 47° WNW 17:16:10 10° SW visible
23 Jan ? 04:14:05 10° SW 04:17:19 19° W 04:20:36 10° NW visible
23 Jan ? 14:14:13 10° NE 14:16:11 12° ENE 14:18:07 10° ESE visible
23 Jan ? 15:48:53 10° NNE 15:53:25 53° E 15:57:52 10° S visible
23 Jan ? 17:25:16 10° N 17:29:31 37° WNW 17:33:42 10° SW visible
24 Jan ? 04:32:53 10° WSW 04:35:24 15° W 04:37:57 10° NW visible
24 Jan ? 14:31:21 10° NE 14:34:17 16° E 14:37:10 10° ESE visible
24 Jan ? 16:06:41 10° NNE 16:11:18 71° ESE 16:15:49 10° S visible
24 Jan ? 17:43:12 10° N 17:47:11 30° NW 17:51:07 10° WSW visible
25 Jan ? 03:11:47 10° S 03:16:10 47° W 03:20:38 10° NNW visible
25 Jan ? 04:52:17 10° W 04:53:31 11° WNW 04:54:45 10° WNW visible
25 Jan ? 14:48:48 10° NE 14:52:20 21° E 14:55:49 10° SE visible
25 Jan ? 16:24:29 10° NNE 16:29:08 88° WNW 16:33:41 10° SSW visible
25 Jan ? 18:01:10 10° N 18:04:49 24° NW 18:08:28 10° WSW visible
